Location: La Brionne
(46.1728°N, 1.7849°E)
Time: 05:42:23
(UTC+00:00)

FENGYUN 1C DEB - Visible Passes

Search period start: 16 July 2024 00:00
Search period end: 26 July 2024 00:00
Orbit: 828 x 1104 km, 98.7° (Epoch: 15 July)

Date Brightness Start Highest point End Pass type
(mag) Time Alt. Az. Time Alt. Az. Time Alt. Az.
16 Jul ? 00:03:13 10° N 00:08:49 45° WNW 00:11:22 28° WSW visible
16 Jul ? 22:42:13 10° NNE 22:47:48 44° E 22:49:14 37° SE visible
17 Jul ? 00:25:38 10° N 00:30:43 31° WNW 00:33:40 19° WSW visible
17 Jul ? 23:04:11 10° NNE 23:10:00 67° ESE 23:11:32 47° SSE visible
18 Jul ? 00:48:12 10° N 00:52:31 22° WNW 00:55:59 13° W visible
18 Jul ? 21:45:03 10° NE 21:48:10 15° E 21:49:24 14° E visible
18 Jul ? 23:26:17 10° NNE 23:32:07 83° WNW 23:33:51 47° SSW visible
19 Jul ? 01:11:05 10° NNW 01:14:15 15° NW 01:17:21 10° W visible
19 Jul ? 22:06:10 10° NE 22:10:36 23° E 22:11:42 21° ESE visible
19 Jul ? 23:48:30 10° N 23:54:09 56° WNW 23:56:09 37° SW visible
20 Jul ? 01:35:04 10° NW 01:35:55 10° NW 01:36:46 10° WNW visible
20 Jul ? 22:27:47 10° NNE 22:32:56 34° E 22:34:00 31° ESE visible
21 Jul ? 00:10:49 10° N 00:16:06 38° WNW 00:18:27 26° WSW visible
21 Jul ? 22:49:37 10° NNE 22:55:11 51° E 22:56:18 44° SE visible
22 Jul ? 00:33:18 10° N 00:37:57 26° WNW 00:40:46 18° WSW visible
22 Jul ? 21:32:04 10° ENE 21:33:09 11° E 21:34:09 10° E visible
22 Jul ? 23:11:38 10° NNE 23:17:21 77° ESE 23:18:36 54° S visible
23 Jul ? 00:55:58 10° NNW 00:59:45 18° NW 01:03:03 11° W visible
23 Jul ? 21:52:04 10° NE 21:55:38 17° E 21:56:27 17° E visible
23 Jul ? 23:33:46 10° N 23:39:25 72° WNW 23:40:54 48° SW visible
24 Jul ? 01:19:06 10° NNW 01:21:26 13° NW 01:23:45 10° WNW visible
24 Jul ? 22:13:24 10° NE 22:18:01 26° E 22:18:45 25° ESE visible
24 Jul ? 23:56:01 10° N 00:01:25 48° WNW 00:03:12 35° WSW visible
25 Jul ? 22:35:06 10° NNE 22:40:18 39° E 22:41:02 37° ESE visible
